www.pogodaiklimat.ru

Погода и климат >> Архив погоды >> Россия >> Чукотка >> Бухта Амбарчик


АРХИВ ПОГОДЫ в Бухте Амбарчик

Время (UTC), дата Ветер
(напр.,м/с)
 
Видим.   Явления Облачность Т
(С)
Тd
(С)
f
(%)
Тe
(С)
Тes
(С)
Комфортность P
(гПа)
Po
(гПа)
Тmin
(С)
Tmax
(С)
R
(мм)
R24
(мм)
S
(см)
12 17.04 В 2
{4}
20 км 3/0
[Ci fib]
-14.5 -16.0 88 -19 -19 1023.2 1020.1
15 17.04 В 3
{6}
20 км 6/0
[Ci fib]
-14.9 -16.6 87 -21 -21 1022.7 1019.6
18 17.04 Ю 8-10
{10}
20 км 6/0
[Ci fib]
-9.2 -13.7 70 -19 -19 1021.5 1018.4
21 17.04 Ю 8-10
{12}
20 км позёмок 4/0
[Ci fib]
-7.8 -14.1 61 -17 -16 1020.9 1017.8 -15.9 23
00 18.04 Ю 8-10
{11}
20 км позёмок 8/0
[Ci fib]
-5.6 -11.0 66 -14 -13 1018.8 1015.8
03 18.04 Ю 8
{10}
20 км позёмок 4/0
[Ci fib]
-3.1 -7.5 72 -11 -10 1016.0 1013.0
06 18.04 Ю 5
{9}
20 км {метель} 8/0
[Ci fib]
-3.5 -8.1 70 -10 -9 1013.7 1010.7
09 18.04 ЮВ 9-11
{11}
20 км позёмок 9/0
[Ac trans Ci fib]
-4.6 -9.9 66 -13 -13 1011.0 1008.0 -2.6
12 18.04 Ю 7
{12}
20 км позёмок 9/3 600 м
[Sc Ac trans Ci fib]
-4.0 -11.0 58 -12 -12 1009.8 1006.8
15 18.04 Ю 12-15
{15}
20 км позёмок 9/8 600 м
[Sc Ci fib]
-1.4 -7.0 66 -10 -10 1009.2 1006.3
18 18.04 Ю 8
{15}
20 км позёмок 8/4 600 м
[Sc Ci fib]
-2.0 -5.7 76 -10 -10 1007.6 1004.7
21 18.04 ЮЗ 9-11
{12}
20 км позёмок 8/6 600 м
[Sc Ac trans Ci fib]
-1.4 -4.4 80 -10 -9 1007.8 1004.9 -5.7 23
00 19.04 З 15-17
{18}
1000 м слаб. ливневой снег {метель} 10/10 300 м
[Cb cap]
-6.8 -7.9 92 -19 -19 1010.0 1007.0 -6.8
03 19.04 З 15-17
{19}
1000 м метель {ливн. осадки} 9/8 600 м
[Sc Ac trans]
-10.7 -12.2 89 -23 -23 1013.2 1010.2
06 19.04 З 16-20
{21}
500 м сильная метель {ливн. осадки} 9/8 300 м
[Sc Ac trans]
-12.1 -13.7 88 -25 -25 1015.5 1012.4
09 19.04 З 13-16
{20}
500 м слаб. ливневой снег {метель} 10/10 300 м
[Cb cap]
-12.3 -13.9 88 -25 -25 1017.7 1014.6 -0.9 0.6
12 19.04 З 13-15
{18}
1000 м метель {ливн. осадки} 9/8 300 м
[Sc Ac trans]
-13.9 -15.6 87 -27 -27 1019.4 1016.3
15 19.04 З 15-15
{16}
1000 м метель 9/6 300 м
[Sc Ac trans]
-16.1 -18.2 84 -31 -31 опасность
обморожения
1020.8 1017.7
18 19.04 ЮЗ 11-14
{15}
4000 м метель 9/9 300 м
[Sc]
-16.5 -18.9 82 -29 -29 1021.6 1018.5
21 19.04 З 11-13
{15}
4000 м метель 9/6 300 м
[Sc Ac trans Ci fib]
-16.4 -19.1 80 -29 -29 1022.3 1019.2 -16.7 0.0 23
00 20.04 З 11-13
{15}
4000 м метель 8/4 300 м
[Sc Ci fib]
-14.5 -17.0 81 -27 -27 1022.2 1019.1
03 20.04 З 10-12
{14}
10 км позёмок 8/4 300 м
[Sc Ci fib]
-13.2 -16.4 77 -25 -24 1022.1 1019.0
06 20.04 З 8-10
{12}
20 км позёмок 9/0
[Ci fib]
-13.7 -16.7 78 -24 -24 1022.3 1019.2
09 20.04 ЮЗ 8-10
{11}
20 км позёмок 9/0
[Ci fib]
-15.2 -18.3 77 -26 -26 1022.4 1019.3 -13.1
12 20.04 З 9-11
{11}
20 км позёмок 9/0
[Ac trans Ci fib]
-16.3 -18.8 81 -28 -28 1023.1 1020.0
15 20.04 ЮЗ 8
{11}
20 км позёмок 9/0
[Ac trans Ci fib]
-18.1 -20.6 81 -30 -30 1024.0 1020.8
18 20.04 З 10-11
{11}
20 км позёмок 4/0
[Ac trans Ci fib]
-18.5 -20.9 81 -32 -32 опасность
обморожения
1024.1 1020.9
21 20.04 З 10-10
{12}
20 км позёмок 4/0
[Ac trans Ci fib]
-19.0 -21.5 81 -32 -32 опасность
обморожения
1025.1 1021.9 -19.4 24
00 21.04 З 8
{10}
20 км позёмок 3/0
[Ac trans Ci fib]
-15.9 -18.4 81 -27 -26 1025.3 1022.2
03 21.04 З 7
{9}
20 км позёмок 3/0
[Ci fib]
-14.3 -16.7 82 -24 -23 1026.0 1022.9
06 21.04 З 6
{9}
20 км позёмок 3/0
[Ci fib]
-13.8 -16.2 82 -23 -22 1026.0 1022.9
09 21.04 З 5
{7}
20 км {метель} 3/0
[Ci fib]
-15.8 -17.9 84 -25 -25 1026.2 1023.1 -13.7
12 21.04 Ю 1
{5}
20 км {метель} 3/0
[Ci fib]
-15.9 -17.6 87 -19 -19 1026.3 1023.2
15 21.04 штиль 0
{5}
20 км 3/0
[Ci fib]
-17.6 -19.3 87 -18 -18 1026.4 1023.2
18 21.04 ЮВ 4
{5}
20 км 3/0
[Ci fib]
-18.7 -20.7 84 -27 -27 1025.7 1022.5
21 21.04 В 3
{5}
20 км 3/0
[Ci fib]
-18.2 -20.6 81 -25 -23 1024.9 1021.7 -20.6 24
00 22.04 В 5
{7}
20 км 4/0
[Ci fib]
-14.1 -17.5 75 -23 -19 1023.9 1020.7
03 22.04 В 4
{7}
20 км 3/0
[Ci fib]
-11.0 -14.1 78 -18 -14 1022.9 1019.8
06 22.04 В 5
{7}
20 км 4/0
[Ci fib]
-10.0 -14.0 72 -18 -17 1021.9 1018.8
09 22.04 Ю 8-10
{11}
20 км позёмок 3/0
[Ci fib]
-10.7 -14.9 71 -20 -20 1020.9 1017.8 -9.4
12 22.04 ЮВ 10-12
{12}
20 км позёмок 4/0
[Ac trans Ci fib]
-11.4 -16.2 68 -22 -22 1019.9 1016.8
15 22.04 Ю 9-11
{12}
20 км позёмок 3/0
[Ci fib]
-11.0 -16.3 65 -21 -21 1019.5 1016.4
18 22.04 Ю 10-13
{13}
20 км позёмок 3/0
[Ci fib]
-9.8 -15.9 61 -20 -20 1018.6 1015.5
21 22.04 ЮВ 9-12
{13}
20 км позёмок 3/0
[Ci fib]
-7.6 -13.9 61 -17 -17 1018.0 1015.0 -11.8 24
00 23.04 ЮВ 8-10
{14}
20 км позёмок 3/0
[Ci fib]
-5.2 -11.1 63 -14 -13 1017.7 1014.7
03 23.04 Ю 1
{12}
20 км {метель} 3/0
[Ci fib]
-2.1 -9.0 59 -4 +3 1017.1 1014.2
06 23.04 Ю 6
{10}
20 км {метель} 3/0
[Ci fib]
-2.7 -9.4 60 -10 -9 1016.4 1013.5
09 23.04 Ю 6
{8}
20 км 3/0
[Ci fib]
-4.5 -11.3 59 -12 -12 1016.9 1013.9 -1.6
12 23.04 Ю 5
{7}
20 км 4/0
[Ac trans Ci fib]
-7.6 -13.3 64 -15 -15 1017.2 1014.2
15 23.04 Ю 7
{8}
20 км 4/0
[Ci fib]
-6.0 -14.0 53 -14 -14 1016.9 1013.9
18 23.04 Ю 9-11
{11}
20 км позёмок 3/0
[Ci fib]
-6.7 -14.3 55 -16 -16 1016.6 1013.6
21 23.04 Ю 9-11
{11}
20 км позёмок 4/0
[Ci fib]
-5.5 -13.9 52 -14 -14 1016.1 1013.1 -7.6 24
00 24.04 В 3
{11}
20 км {метель} 4/0
[Ci fib]
-3.8 -10.9 58 -9 -3 1015.9 1012.9
03 24.04 ЮВ 7
{9}
20 км 4/0
[Ci fib]
-2.2 -8.7 61 -9 -8 1014.4 1011.5
06 24.04 Ю 6
{10}
20 км 4/0
[Ci fib]
-2.6 -7.9 67 -10 -9 1013.5 1010.6
09 24.04 Ю 3
{7}
20 км 8/0
[Ac trans Ci fib]
-4.8 -11.0 62 -10 -10 1013.5 1010.5 -1.9

 

Местоположение метеостанции Бухта Амбарчик (Чукотка, Россия): широта 69.62 долгота 162.30 высота над уровнем моря 23 м.

В архиве по умолчанию представлена погода в Бухте Амбарчик за последнюю неделю. Архивные данные за месяц целиком и за предыдущие месяцы, начиная с января 2011 года, Вы можете получить, выбрав интересующий диапазон дат из раскрывающегося списка и нажав кнопку "Ввод!".


*Определитесь, кто Вы:
робот инопланетянин человек

Внимание! Время в таблицах - всемирное. Для получения местного времени необходимо прибавить поправку, которая равна 12 ч.

Смотрите также архив погоды в соседних городах и на ближайших метеорологических станциях:

Погода в Черском (Якутия, Россия) (107 км)
Погода в Анюйске (Чукотка, Россия) (145 км)
Погода в Раучуе (Чукотка, Россия) (164 км)
Погода в Константиновской (Чукотка, Россия) (170 км)
Погода в Колымской (Якутия, Россия) (177 км)
Погода в Островном (Чукотка, Россия) (182 км)
Погода на Айон Острове (Чукотка, Россия) (218 км)
Погода в Билибино (Чукотка, Россия) (240 км)
Погода в Певеке (Чукотка, Россия) (305 км)
Погода в Андрюшкино (Якутия, Россия) (309 км)

Пояснения к столбцам:

Ветер - указаны скорость ветра в м/с - средняя за 10 мин, порывы в срок и между сроками (в фигурных скобках) и направление, откуда дует ветер: С - северный, СВ - северо-восточный, В - восточный, ЮВ - юго-восточный, Ю - южный, ЮЗ - юго-западный, З - западный, СЗ - северо-западный.
Видимость - горизонтальная дальность видимости в метрах или километрах. При видимости от 1 до 10 км при отсутствии осадков обычно наблюдается дымка, при ухудшении видимости до 1 км и менее - туман. В сухую погоду видимость может ухудшаться дымом, пылью или мглою.
Явления - указаны атмосферные явления, наблюдавшиеся в срок или в последний час перед сроком; фигурными скобками обозначены явления, наблюдавшиеся между сроками (за 1-3 часа до срока); квадратными скобками обозначены град или гололедные отложения с указанием их диаметра в мм.
Облачность - указаны через наклонную черту общая и нижняя облачность в баллах и высота нижней границы облаков в метрах; квадратными скобками обозначены формы облаков: Ci - перистые, Cs - перисто-слоистые, Cc - перисто-кучевые, Ac - высококучевые, As - высокослоистые, Sc - слоисто-кучевые, Ns - слоисто-дождевые, Cu - кучевые, Cb - кучево-дождевые. Подробнее классификацию облаков см. в Атласе облаков (PDF).
T - Температура воздуха - температура, измеренная на высоте 2 м над землей.
Td - Температура точки росы - температура, при понижении до которой содержащийся в воздухе водяной пар достигнет насыщения.
f - Относительная влажность воздуха - влажноcть воздуха, измеренная на высоте 2 м над землей.
Te - Эффективная температура - температура, которую ощущает одетый по сезону человек в тени. Характеристика душности погоды. При расчете учитывается влияние влажности воздуха и скорости ветра на теплоощущения человека.
Tes - Эффективная температура на солнце - температура, которую ощущает человек, с поправкой на солнечный нагрев. Характеристика знойности погоды. Зависит от высоты солнца над горизонтом, облачности и скорости ветра. Ночью, в пасмурную погоду, а также при ветре 12 м/с и более поправка равна нулю.
P - Атмосферное давление - приведенное к уровню моря атмосферное давление.
Po - Атмосферное давление - измеренное на уровне метеостанции атмосферное давление.
Tmin - Минимальная температура - минимум температуры воздуха на высоте 2 м над землей.
Tmax - Максимальная температура - максимум температуры воздуха на высоте 2 м над землей.
R - Количество осадков - Количество выпавших осадков за период времени, мм. При наведении курсора мыши на число - период времени, за который выпало указанное количество осадков.
R24 - Количество осадков - Количество выпавших осадков за 24 часа, мм.
S - Снежный покров - Высота снежного покрова, см. При наведении курсора мыши на число - состояние снежного покрова и степень покрытия местности в баллах.